TJS-6

Last updated on Tue Sep 22 2026 00:03:15 GMT+0000 (Coordinated Universal Time)

1 47613U 21010A 26264.59567116 .00000039 00000+0 00000+0 0 9995 2 47613 0.0159 208.4073 0003636 334.2834 210.7287 1.00273135 20772
UTC large
Height (km)
Speed (km/s)
/
Latitude / Longitude
Inclination (degrees)
Orbital Period (minutes)
Azimuth
Elevation
Range (km)
Doppler Factor

Next 0 passes for location: London (51.5072 / 0.1276)

No passes found over London.
TJS-6